Location: Castelnau
(43.6639°N, 0.8431°W)
Time: 22:46:22
(UTC+00:00)

SKYMED 2 - Pass Details

Date: 13 January 2026
Orbit: 621 x 624 km, 97.9° (Epoch: 11 February)

Event Time Altitude Azimuth Distance (km) Brightness Sun altitude
Rises 05:27:54 0° 174° (S) 2,890 7.2 -22.4°
Reaches altitude 10° 05:30:06 10° 178° (S) 1,989 6.3 -22.0°
Maximum altitude 05:34:23 61° 259° (WSW) 710 3.5 -21.3°
Enters shadow 05:34:45 58° 285° (WNW) 729 3.5 -21.2°
